FW5217 Weather Reports


Display with metric or nautical units.
time (UTC)temp
F
wind
direction
speed
MPH
gust
MPH
rain 1hr
in
rain 24hr
in
rain mn
in
humidity
%
barometer
mb
20240623104342 78 257 1.0 6.0 0.00 0.57 0.00 96 1016.8
20240623103348 77 257 2.0 4.0 0.00 0.57 0.00 96 1016.8
20240623102915 78 258 2.0 4.0 0.00 0.57 0.00 96 1016.7
20240623102335 77 258 1.0 2.0 0.00 0.57 0.00 96 1016.7
20240623101907 77 258 0.0 4.0 0.00 0.57 0.00 97 1016.7
20240623101328 77 258 1.0 4.0 0.00 0.57 0.00 96 1016.6
20240623100852 77 258 2.0 3.0 0.00 0.57 0.00 96 1016.5
20240623100415 77 258 1.0 3.0 0.00 0.57 0.00 96 1016.5
20240623095912 77 258 1.0 3.0 0.00 0.57 0.00 97 1016.6
20240623095414 77 258 1.0 3.0 0.00 0.57 0.00 97 1016.6
20240623094829 77 258 1.0 4.0 0.00 0.57 0.00 96 1016.6
20240623094351 77 258 1.0 4.0 0.00 0.57 0.00 96 1016.5
20240623093913 78 258 2.0 4.0 0.00 0.57 0.00 96 1016.4
20240623093414 78 258 2.0 4.0 0.00 0.57 0.00 96 1016.2
20240623092830 78 258 2.0 4.0 0.00 0.57 0.00 96 1016.4
20240623092346 78 258 1.0 4.0 0.00 0.57 0.00 96 1016.4
20240623091850 78 258 0.0 3.0 0.00 0.57 0.00 96 1016.3
20240623091408 78 258 0.0 3.0 0.00 0.57 0.00 96 1016.3
20240623090857 78 258 2.0 4.0 0.00 0.57 0.00 96 1016.3
20240623090422 78 258 2.0 4.0 0.00 0.57 0.00 96 1016.3
20240623085843 78 258 1.0 4.0 0.00 0.57 0.00 96 1016.3
20240623084845 78 258 3.0 4.0 0.00 0.57 0.00 96 1016.2
20240623084413 78 258 2.0 4.0 0.00 0.57 0.00 96 1016.3
20240623083854 77 258 1.0 4.0 0.00 0.57 0.00 96 1016.3
20240623083416 77 258 2.0 4.0 0.00 0.57 0.00 96 1016.3
20240623082835 77 258 1.0 3.0 0.00 0.57 0.00 96 1016.4
20240623082355 77 258 0.0 3.0 0.00 0.57 0.00 96 1016.6
20240623081900 77 258 1.0 3.0 0.00 0.57 0.00 96 1016.6
20240623081355 77 258 1.0 3.0 0.00 0.57 0.00 96 1016.6
20240623080916 77 258 0.0 3.0 0.00 0.57 0.00 96 1016.8
20240623080342 77 258 0.0 2.0 0.00 0.57 0.00 97 1016.8
20240623075825 77 258 0.0 3.0 0.00 0.57 0.00 97 1016.9
20240623075348 77 258 1.0 3.0 0.00 0.57 0.00 97 1016.9
20240623074859 77 258 1.0 2.0 0.00 0.57 0.00 97 1016.8
20240623074418 77 258 1.0 3.0 0.00 0.57 0.00 97 1016.7
20240623073826 77 259 0.0 3.0 0.00 0.57 0.00 97 1016.8
20240623073353 77 258 0.0 2.0 0.00 0.57 0.00 97 1016.7
20240623072918 77 258 0.0 1.0 0.00 0.57 0.00 97 1016.6
20240623072427 77 258 0.0 1.0 0.00 0.57 0.00 97 1016.6
20240623071834 77 258 0.0 2.0 0.00 0.57 0.00 96 1016.6
20240623071355 77 258 0.0 3.0 0.00 0.57 0.00 96 1016.5
20240623070854 77 258 1.0 4.0 0.00 0.57 0.00 96 1016.5
20240623070417 77 258 2.0 6.0 0.00 0.57 0.00 96 1016.6
20240623065343 78 260 2.0 4.0 0.00 0.57 0.00 96 1016.9
20240623064846 78 260 1.0 3.0 0.00 0.57 0.00 96 1016.9
20240623064417 78 260 0.0 3.0 0.00 0.57 0.00 96 1017.0
20240623063834 78 260 1.0 2.0 0.00 0.57 0.00 96 1017.0
20240623063358 78 260 0.0 3.0 0.00 0.57 0.00 96 1017.0
20240623062907 78 260 1.0 4.0 0.00 0.57 0.00 96 1017.1
20240623062430 78 260 1.0 6.0 0.00 0.57 0.00 96 1017.1
20240623061828 78 260 2.0 7.0 0.00 0.57 0.00 96 1017.0
20240623061348 78 253 4.0 7.0 0.00 0.57 0.00 96 1017.1
20240623060909 78 240 2.0 7.0 0.00 0.57 0.00 96 1017.2
20240623060433 78 242 3.0 8.0 0.00 0.57 0.00 96 1017.1
20240623055843 78 221 4.0 8.0 0.00 0.57 0.00 96 1017.2
20240623055406 78 261 3.0 7.0 0.00 0.57 0.00 96 1017.4
20240623054825 78 252 2.0 7.0 0.00 0.57 0.00 96 1017.5
20240623054327 78 250 3.0 7.0 0.00 0.57 0.00 97 1017.4
20240623053828 78 236 2.0 4.0 0.00 0.57 0.00 97 1017.7
20240623053329 78 232 1.0 2.0 0.00 0.57 0.00 97 1017.7
20240623052831 78 232 1.0 2.0 0.00 0.57 0.00 97 1017.9
20240623052332 78 232 1.0 2.0 0.00 0.57 0.00 97 1017.9
20240623051834 78 232 0.0 3.0 0.00 0.57 0.00 97 1017.9
20240623051334 78 232 0.0 3.0 0.00 0.57 0.00 97 1017.9
20240623050832 78 232 1.0 3.0 0.00 0.57 0.00 97 1017.9
20240623050334 78 232 1.0 3.0 0.00 0.57 0.00 98 1017.9
20240623045827 78 232 2.0 3.0 0.00 0.57 0.00 98 1017.9
20240623045348 78 233 1.0 3.0 0.00 0.57 0.00 98 1017.7
20240623044828 78 234 0.0 3.0 0.00 0.57 0.00 98 1017.7
20240623044350 78 234 1.0 3.0 0.00 0.57 0.00 98 1017.7
20240623043834 78 234 1.0 5.0 0.00 0.57 0.00 98 1017.4
20240623043335 78 233 2.0 5.0 0.00 0.57 0.00 98 1017.4
20240623042837 78 233 2.0 7.0 0.00 0.57 0.00 98 1017.3
20240623042338 78 257 3.0 7.0 0.00 0.57 0.00 98 1017.3
20240623041901 78 244 3.0 5.0 0.00 0.57 0.00 98 1017.4
20240623041337 78 252 1.0 5.0 0.00 0.57 0.57 98 1017.5
20240623040838 78 252 2.0 5.0 0.00 0.57 0.57 98 1017.5
20240623040338 77 252 2.0 4.0 0.00 0.57 0.57 98 1017.6
20240623035351 77 247 3.0 6.0 0.00 0.57 0.57 98 1017.4
20240623034918 77 245 3.0 7.0 0.00 0.57 0.57 98 1017.5
20240623034337 77 146 1.0 4.0 0.00 0.57 0.57 98 1017.6
20240623033344 78 145 2.0 4.0 0.00 0.57 0.57 98 1017.9
20240623032913 78 145 1.0 3.0 0.00 0.57 0.57 99 1017.9
20240623032335 78 145 2.0 3.0 0.00 0.57 0.57 99 1017.9
20240623031900 78 145 1.0 3.0 0.00 0.57 0.57 99 1017.7
20240623031328 78 145 1.0 2.0 0.00 0.57 0.57 99 1017.7
20240623030854 78 145 1.0 2.0 0.00 0.57 0.57 99 1017.8
20240623030420 77 145 1.0 2.0 0.00 0.57 0.57 99 1017.7
20240623025913 77 144 0.0 3.0 0.00 0.57 0.57 99 1017.8
20240623025334 77 144 1.0 7.0 0.00 0.57 0.57 99 1017.8
20240623024857 77 144 1.0 7.0 0.00 0.57 0.57 99 1017.7
20240623024356 77 163 2.0 5.0 0.00 0.57 0.57 99 1017.6
20240623023855 77 163 2.0 5.0 0.00 0.57 0.57 99 1017.7
20240623023416 77 163 2.0 5.0 0.00 0.57 0.57 99 1017.7
20240623022834 77 165 2.0 5.0 0.00 0.57 0.57 99 1017.6
20240623022359 77 203 2.0 3.0 0.00 0.57 0.57 99 1017.6
20240623021922 77 207 2.0 3.0 0.00 0.57 0.57 99 1017.7
20240623021340 77 207 1.0 3.0 0.00 0.57 0.57 99 1017.5
20240623020908 77 207 1.0 3.0 0.00 0.57 0.57 99 1017.5
20240623015825 77 207 1.0 2.0 0.00 0.57 0.57 99 1017.5
20240623015353 76 207 1.0 2.0 0.00 0.57 0.57 99 1017.5
20240623014918 76 207 0.0 1.0 0.00 0.57 0.57 99 1017.3
20240623014340 77 207 0.0 2.0 0.00 0.57 0.57 99 1017.4
20240623013901 77 207 0.0 2.0 0.00 0.57 0.57 99 1017.4
20240623013408 76 207 1.0 2.0 0.01 0.57 0.57 99 1017.5
20240623012910 76 207 0.0 3.0 0.01 0.57 0.57 99 1017.5
20240623012326 76 207 2.0 3.0 0.04 0.57 0.57 99 1017.5
20240623011853 76 210 1.0 2.0 0.09 0.57 0.57 99 1017.3
20240623011415 76 210 0.0 2.0 0.18 0.57 0.57 99 1017.1
20240623010830 76 211 0.0 3.0 0.37 0.57 0.57 99 1017.0
20240623005826 76 148 1.0 3.0 0.53 0.57 0.57 98 1017.3
20240623005351 76 122 1.0 3.0 0.53 0.57 0.57 98 1017.3
20240623004917 76 108 2.0 3.0 0.53 0.57 0.57 98 1017.5
20240623004404 76 34 1.0 3.0 0.54 0.57 0.57 98 1017.6
20240623003853 76 34 1.0 3.0 0.54 0.57 0.57 98 1017.7
20240623003415 76 31 1.0 3.0 0.53 0.56 0.56 98 1017.6
20240623002922 76 5 2.0 4.0 0.52 0.55 0.56 98 1017.2
20240623002342 76 5 1.0 8.0 0.50 0.53 0.53 97 1016.8
20240623001347 75 348 4.0 12.0 0.33 0.40 0.36 96 1017.0
20240623000900 76 5 4.0 15.0 0.18 0.24 0.22 95 1017.1
20240623000421 76 329 6.0 15.0 0.05 0.11 0.07 94 1017.3
20240622235916 77 306 6.0 13.0 0.03 0.08 0.04 93 1017.5
20240622235439 78 244 4.0 13.0 0.03 0.08 0.04 92 1017.4
20240622234839 80 288 5.0 12.0 0.04 0.08 0.04 93 1017.3
20240622234358 81 304 2.0 6.0 0.03 0.07 0.03 96 1017.4
20240622233918 82 261 2.0 4.0 0.03 0.07 0.03 96 1017.1
20240622233335 82 242 2.0 4.0 0.03 0.07 0.03 96 1016.8
20240622232859 82 161 0.0 1.0 0.03 0.07 0.03 96 1016.7
20240622232401 82 161 0.0 2.0 0.03 0.07 0.03 96 1016.6
20240622231919 82 161 0.0 2.0 0.03 0.07 0.03 95 1016.7
20240622231337 82 161 1.0 3.0 0.03 0.07 0.03 95 1016.8
20240622230900 82 161 1.0 3.0 0.02 0.06 0.02 95 1017.1
20240622230331 83 161 1.0 3.0 0.02 0.06 0.02 94 1016.9
20240622225832 83 161 2.0 6.0 0.01 0.05 0.01 94 1016.6
20240622225400 83 162 2.0 6.0 0.01 0.05 0.01 93 1016.4
20240622224925 83 113 3.0 6.0 0.00 0.04 0.00 92 1016.6
20240622224341 83 143 2.0 4.0 0.00 0.04 0.00 92 1016.7
20240622223909 83 142 1.0 4.0 0.00 0.04 0.00 91 1016.7
20240622223327 83 138 2.0 4.0 0.00 0.04 0.00 90 1016.6
20240622222849 83 167 1.0 6.0 0.00 0.04 0.00 90 1016.5
20240622222414 83 168 3.0 6.0 0.00 0.04 0.00 90 1016.4
20240622221941 83 162 3.0 11.0 0.00 0.04 0.00 89 1016.5
20240622221338 83 153 5.0 11.0 0.00 0.06 0.00 88 1016.5
20240622220904 83 147 3.0 9.0 0.00 0.06 0.00 88 1016.3
20240622220435 84 161 2.0 8.0 0.00 0.06 0.00 88 1016.2
20240622215915 84 163 5.0 8.0 0.00 0.06 0.00 87 1016.2
20240622215328 84 167 3.0 6.0 0.00 0.06 0.00 87 1016.5
20240622205914 84 172 4.0 11.0 0.00 0.06 0.00 89 1016.3
20240622205434 84 162 6.0 14.0 0.00 0.06 0.00 88 1016.3
20240622204844 85 108 7.0 14.0 0.00 0.06 0.00 89 1016.3
20240622202423 84 160 5.0 8.0 0.00 0.06 0.00 90 1017.0
20240622201943 84 112 4.0 8.0 0.00 0.06 0.00 89 1017.0
20240622201329 85 180 5.0 10.0 0.00 0.06 0.00 89 1017.0
20240622200853 85 170 4.0 10.0 0.00 0.06 0.00 87 1017.0
20240622200423 85 169 5.0 10.0 0.00 0.06 0.00 86 1017.0
20240622195920 85 158 3.0 8.0 0.00 0.06 0.00 85 1017.2
20240622195338 85 144 3.0 7.0 0.00 0.06 0.00 85 1017.1
20240622194908 85 166 3.0 7.0 0.00 0.06 0.00 86 1017.1
20240622194329 85 163 4.0 7.0 0.00 0.06 0.00 85 1017.2
20240622193855 85 123 3.0 5.0 0.00 0.06 0.00 86 1017.1
20240622193422 85 144 3.0 5.0 0.00 0.06 0.00 86 1017.1
20240622192847 85 119 2.0 8.0 0.00 0.06 0.00 86 1017.2
20240622192408 85 156 3.0 8.0 0.00 0.06 0.00 85 1017.3
20240622191911 85 152 2.0 9.0 0.00 0.06 0.00 86 1017.4
20240622191326 85 150 2.0 10.0 0.00 0.12 0.00 86 1017.5
20240622190904 85 128 3.0 10.0 0.00 0.12 0.00 85 1017.5
20240622190327 86 167 4.0 10.0 0.00 0.12 0.00 86 1017.5
20240622185851 86 168 4.0 9.0 0.00 0.12 0.00 86 1017.5
20240622185417 87 159 5.0 8.0 0.00 0.12 0.00 83 1017.8
20240622184832 89 143 2.0 4.0 0.00 0.12 0.00 77 1017.8
20240622184354 90 55 0.0 3.0 0.00 0.12 0.00 76 1017.6
20240622183923 90 330 1.0 5.0 0.00 0.12 0.00 76 1017.7
20240622183341 90 330 3.0 5.0 0.00 0.12 0.00 77 1017.7
20240622182904 89 351 3.0 5.0 0.00 0.12 0.00 79 1017.8
20240622182409 88 355 2.0 5.0 0.00 0.12 0.00 80 1018.0
20240622181932 88 360 1.0 4.0 0.00 0.12 0.00 79 1018.1
20240622181330 88 360 1.0 5.0 0.00 0.13 0.00 80 1018.2
20240622180849 88 355 1.0 5.0 0.00 0.13 0.00 80 1018.2
20240622180412 88 11 1.0 4.0 0.00 0.13 0.00 80 1018.2
20240622175917 88 325 2.0 7.0 0.00 0.13 0.00 80 1018.2
20240622175326 87 319 3.0 7.0 0.00 0.13 0.00 80 1018.4
20240622174848 87 327 3.0 6.0 0.00 0.13 0.00 81 1018.4
20240622173845 87 238 4.0 11.0 0.00 0.13 0.00 82 1018.5
20240622172849 86 238 2.0 13.0 0.00 0.13 0.00 84 1018.7
20240622172414 85 244 4.0 13.0 0.00 0.13 0.00 84 1018.5
20240622171912 85 232 5.0 12.0 0.00 0.13 0.00 85 1018.3
20240622171330 85 275 2.0 12.0 0.00 0.13 0.00 87 1018.0
20240622170856 84 240 5.0 12.0 0.00 0.13 0.00 87 1018.0
20240622170356 84 242 6.0 12.0 0.00 0.13 0.00 87 1018.0
20240622165852 84 261 6.0 11.0 0.00 0.13 0.00 87 1018.2
20240622165335 83 269 6.0 9.0 0.00 0.13 0.00 87 1018.5
20240622164338 83 254 4.0 7.0 0.00 0.13 0.00 90 1018.7
20240622163904 82 265 4.0 7.0 0.00 0.13 0.00 90 1018.9
20240622163328 82 246 2.0 5.0 0.00 0.13 0.00 91 1018.9
20240622162853 82 242 3.0 4.0 0.00 0.13 0.00 91 1019.0
20240622162413 82 236 2.0 4.0 0.00 0.13 0.00 92 1019.0
20240622161835 81 237 1.0 3.0 0.00 0.13 0.00 92 1019.1
20240622161357 81 237 1.0 3.0 0.00 0.13 0.00 91 1019.2
20240622160920 81 237 1.0 3.0 0.00 0.13 0.00 92 1019.3
20240622160340 81 237 1.0 3.0 0.00 0.13 0.00 92 1019.3
20240622155842 80 237 1.0 3.0 0.00 0.13 0.00 93 1019.3
20240622155406 80 238 1.0 2.0 0.00 0.13 0.00 93 1019.5
20240622154829 80 292 0.0 2.0 0.00 0.13 0.00 93 1019.5
20240622154348 80 270 1.0 2.0 0.00 0.13 0.00 93 1019.5
20240622153857 80 274 0.0 2.0 0.00 0.13 0.00 93 1019.5
20240622153421 80 264 0.0 2.0 0.00 0.13 0.00 93 1019.6
20240622152835 80 264 0.0 2.0 0.00 0.13 0.00 93 1019.9
20240622152406 80 264 0.0 2.0 0.00 0.13 0.00 93 1019.9
20240622151347 79 264 0.0 1.0 0.00 0.13 0.00 93 1020.2
20240622150849 79 264 0.0 2.0 0.00 0.13 0.00 93 1020.2
20240622150410 79 264 1.0 2.0 0.00 0.13 0.00 93 1020.3
20240622145346 79 264 0.0 2.0 0.00 0.13 0.00 94 1020.3
20240622144350 79 264 0.0 2.0 0.00 0.13 0.00 94 1020.3
20240622143919 79 264 1.0 2.0 0.00 0.13 0.00 94 1020.3
20240622143337 79 264 1.0 2.0 0.00 0.13 0.00 94 1020.3
20240622142910 79 264 0.0 3.0 0.00 0.13 0.00 94 1020.3
20240622142334 79 264 0.0 3.0 0.00 0.13 0.00 94 1020.3
20240622141853 79 264 0.0 4.0 0.00 0.13 0.00 94 1020.3
20240622141422 79 264 1.0 4.0 0.00 0.13 0.00 94 1020.3
20240622140847 79 263 0.0 4.0 0.00 0.13 0.00 94 1020.4
20240622140410 79 263 1.0 4.0 0.00 0.13 0.00 94 1020.1
20240622135908 79 264 2.0 6.0 0.00 0.13 0.00 94 1020.1
20240622135327 79 264 3.0 6.0 0.00 0.13 0.00 94 1019.9
20240622134857 79 267 1.0 4.0 0.00 0.13 0.00 94 1019.8
20240622134415 79 267 1.0 4.0 0.00 0.13 0.00 94 1020.0
20240622133934 79 267 2.0 4.0 0.00 0.13 0.00 94 1020.2
20240622133339 79 267 2.0 6.0 0.00 0.13 0.00 95 1020.2
20240622132826 79 266 2.0 6.0 0.00 0.13 0.00 95 1020.1
20240622132354 79 260 1.0 6.0 0.00 0.13 0.00 95 1019.8
20240622131919 79 263 2.0 6.0 0.00 0.13 0.00 95 1019.7
20240622131428 78 281 2.0 5.0 0.00 0.13 0.00 96 1019.7
20240622130935 78 251 3.0 5.0 0.00 0.13 0.00 96 1019.6
20240622130337 78 252 3.0 5.0 0.00 0.13 0.00 96 1019.7
20240622125841 78 251 0.0 4.0 0.00 0.13 0.00 96 1019.7
20240622124836 78 252 1.0 4.0 0.00 0.13 0.00 96 1019.6
20240622124337 78 252 1.0 5.0 0.00 0.13 0.00 97 1019.4
20240622123846 78 250 2.0 5.0 0.00 0.13 0.00 97 1019.1
20240622123403 78 251 1.0 5.0 0.00 0.13 0.00 97 1019.1
20240622122349 77 200 3.0 7.0 0.00 0.13 0.00 97 1019.1
20240622121921 77 245 3.0 7.0 0.00 0.13 0.00 97 1019.2
20240622121344 77 241 2.0 5.0 0.00 0.13 0.00 98 1019.2
20240622120913 77 243 2.0 4.0 0.00 0.13 0.00 98 1019.2
20240622120335 77 250 0.0 3.0 0.00 0.13 0.00 98 1019.3
20240622115841 77 250 1.0 4.0 0.00 0.13 0.00 98 1019.1
20240622115407 77 249 1.0 4.0 0.00 0.13 0.00 98 1019.1
20240622114349 77 249 0.0 1.0 0.00 0.13 0.00 98 1019.3
20240622113849 77 250 0.0 1.0 0.00 0.13 0.00 98 1019.4
20240622113350 77 250 0.0 2.0 0.00 0.13 0.00 98 1019.3
20240622112845 77 250 0.0 2.0 0.00 0.13 0.00 98 1019.2
20240622112406 77 250 1.0 2.0 0.00 0.13 0.00 98 1019.2
20240622111919 77 250 1.0 2.0 0.00 0.13 0.00 98 1019.2
20240622111340 77 250 0.0 2.0 0.00 0.13 0.00 98 1019.2
20240622110909 77 250 1.0 2.0 0.00 0.13 0.00 97 1019.2
20240622110334 77 249 0.0 1.0 0.00 0.13 0.00 98 1019.3
20240622105838 77 249 0.0 2.0 0.00 0.13 0.00 98 1019.0
20240622105407 77 250 0.0 2.0 0.00 0.13 0.00 98 1019.1
20240622104918 77 249 0.0 2.0 0.00 0.13 0.00 97 1018.9